ELEKTRO-L 4

Last updated on Sat Aug 15 2026 00:03:03 GMT+0000 (Coordinated Universal Time)

1 55506U 23016A 26225.64486698 -.00000076 00000+0 00000+0 0 9993 2 55506 0.0509 291.6470 0002048 248.1582 180.1756 1.00272159 12918
UTC large
Height (km)
Speed (km/s)
/
Latitude / Longitude
Inclination (degrees)
Orbital Period (minutes)
Azimuth
Elevation
Range (km)
Doppler Factor

Next 0 passes for location: London (51.5072 / 0.1276)

No passes found over London.
ELEKTRO-L 4